Lakeville, MN

11:46 PM CST on December 17, 2017 (GMT -0600)
Airlake

Weather History for KLVN - November, 2011

Change the Weather History Date:

Monday, November 21, 2011

  Actual Average Record
Temperature  
Mean Temperature 26 °F -  
Max Temperature 35 °F 36 °F 67 °F (1990)
Min Temperature 17 °F 20 °F -2 °F (1964)
Degree Days  
Heating Degree Days 39    
Moisture  
Dew Point 25 °F    
Average Humidity 91    
Maximum Humidity 100    
Minimum Humidity 75    
Precipitation  
Precipitation 0.00 in - - ()
Sea Level Pressure  
Sea Level Pressure 30.27 in    
Wind  
Wind Speed 3 mph (SSE)    
Max Wind Speed 8 mph    
Max Gust Speed -    
Visibility 8 miles    
Events      
Averages and records for this station are not official NWS values.
T = Trace of Precipitation, MM = Missing Value Source: NWS Daily Summary

Daily Weather History Graph

Daily Weather History Graph

Search for Another Location

Airport or City:

Trip Planner

Search our weather history database for the weather conditions in past years. The results will help you decide how hot, cold, wet, or windy it might be!

Date:

Astronomy

Nov. 21, 2011 Rise Set
Actual Time 7:17 AM CST 4:39 PM CST
Civil Twilight 6:45 AM CST 5:11 PM CST
Nautical Twilight 6:09 AM CST 5:47 PM CST
Astronomical Twilight 5:34 AM CST 6:22 PM CST
Moon 2:47 AM CST (11/21) 2:09 PM CST (11/21)
Length of Visible Light 10h 26m
Length of Day
9h 22m
Waning Crescent, 17% of the Moon is Illuminated
Nov 21
Waning Crescent
Nov 25
New
Dec 2
First Quarter
Dec 10
Full
Dec 17
Last Quarter

Hourly Weather History & Observations

Time (CST) Temp. Windchill Dew Point Humidity Pressure Visibility Wind Dir Wind Speed Gust Speed Precip Events Conditions
12:11 AM 17.6 °F - 17.6 °F 100% 30.31 in 10.0 mi Calm Calm - N/A   Overcast
12:30 AM 17.6 °F - 17.6 °F 100% 30.31 in 10.0 mi Calm Calm - N/A   Overcast
12:51 AM 19.4 °F - 17.6 °F 93% 30.31 in 10.0 mi Calm Calm - N/A   Overcast
1:11 AM 19.4 °F 14.3 °F 19.4 °F 100% 30.31 in 10.0 mi South 3.5 mph - N/A   Overcast
1:30 AM 19.4 °F 11.5 °F 19.4 °F 100% 30.30 in 10.0 mi South 5.8 mph - N/A   Unknown
1:51 AM 19.4 °F 12.8 °F 19.4 °F 100% 30.29 in 10.0 mi South 4.6 mph - N/A   Overcast
2:51 AM 21.2 °F 16.4 °F 19.4 °F 93% 30.31 in 10.0 mi SSW 3.5 mph - N/A   Overcast
3:11 AM 21.2 °F - 21.2 °F 100% 30.30 in 10.0 mi Calm Calm - N/A   Overcast
3:30 AM 21.2 °F - 21.2 °F 100% 30.30 in 10.0 mi Calm Calm - N/A   Overcast
3:51 AM 21.2 °F - 21.2 °F 100% 30.30 in 10.0 mi Calm Calm - N/A   Overcast
4:11 AM 21.2 °F - 21.2 °F 100% 30.29 in 10.0 mi Calm Calm - N/A   Overcast
4:30 AM 21.2 °F - 21.2 °F 100% 30.29 in 10.0 mi Calm Calm - N/A   Overcast
4:51 AM 21.2 °F 13.6 °F 21.2 °F 100% 30.29 in 10.0 mi South 5.8 mph - N/A   Unknown
5:11 AM 23.0 °F - 21.2 °F 93% 30.29 in 10.0 mi Calm Calm - N/A   Overcast
5:30 AM 23.0 °F - 21.2 °F 93% 30.30 in 10.0 mi Calm Calm - N/A   Overcast
5:51 AM 23.0 °F - 21.2 °F 93% 30.30 in 10.0 mi Calm Calm - N/A   Overcast
6:10 AM 23.0 °F 18.4 °F 21.2 °F 93% 30.30 in 10.0 mi ESE 3.5 mph - N/A   Overcast
6:30 AM 23.0 °F 15.8 °F 21.2 °F 93% 30.29 in 7.0 mi SSE 5.8 mph - N/A   Overcast
6:51 AM 23.0 °F 15.8 °F 21.2 °F 93% 30.28 in 7.0 mi SE 5.8 mph - N/A   Overcast
7:10 AM 23.0 °F 17.0 °F 21.2 °F 93% 30.28 in 7.0 mi SE 4.6 mph - N/A   Overcast
7:30 AM 23.0 °F 14.7 °F 21.2 °F 93% 30.28 in 7.0 mi SSE 6.9 mph - N/A   Overcast
7:51 AM 23.0 °F 14.7 °F 23.0 °F 100% 30.28 in 2.0 mi SE 6.9 mph - N/A   Overcast
8:10 AM 23.0 °F 15.8 °F 23.0 °F 100% 30.29 in 1.2 mi SSE 5.8 mph - N/A   Overcast
8:30 AM 24.8 °F 20.5 °F 24.8 °F 100% 30.30 in 1.2 mi SSE 3.5 mph - N/A   Overcast
8:51 AM 24.8 °F 16.9 °F 24.8 °F 100% 30.29 in 2.0 mi SSE 6.9 mph - N/A   Overcast
9:10 AM 24.8 °F 17.9 °F 24.8 °F 100% 30.29 in 1.5 mi SSE 5.8 mph - N/A   Overcast
9:30 AM 26.6 °F 20.0 °F 26.6 °F 100% 30.28 in 2.5 mi SSE 5.8 mph - N/A   Overcast
9:51 AM 26.6 °F 21.2 °F 26.6 °F 100% 30.29 in 4.0 mi South 4.6 mph - N/A   Overcast
10:10 AM 26.6 °F - 26.6 °F 100% 30.28 in 5.0 mi Calm Calm - N/A   Mostly Cloudy
10:30 AM 28.4 °F 24.6 °F 26.6 °F 93% 30.28 in 7.0 mi South 3.5 mph - N/A   Mostly Cloudy
10:51 AM 30.2 °F - 26.6 °F 86% 30.28 in 7.0 mi Calm Calm - N/A   Mostly Cloudy
11:10 AM 30.2 °F 26.7 °F 28.4 °F 93% 30.27 in 10.0 mi South 3.5 mph - N/A   Mostly Cloudy
11:31 AM 33.8 °F 28.6 °F 28.4 °F 81% 30.26 in 10.0 mi South 5.8 mph - N/A   Scattered Clouds
11:50 AM 33.8 °F 27.0 °F 28.4 °F 81% 30.25 in 10.0 mi South 8.1 mph - N/A   Mostly Cloudy
12:11 PM 35.6 °F 31.7 °F 28.4 °F 75% 30.25 in 10.0 mi SSW 4.6 mph - N/A   Scattered Clouds
12:31 PM 35.6 °F 32.8 °F 28.4 °F 75% 30.25 in 10.0 mi South 3.5 mph - N/A   Mostly Cloudy
12:50 PM 33.8 °F - 28.4 °F 81% 30.24 in 10.0 mi Calm Calm - N/A   Overcast
1:11 PM 35.6 °F - 28.4 °F 75% 30.23 in 10.0 mi Calm Calm - N/A   Overcast
1:31 PM 35.6 °F 30.7 °F 30.2 °F 81% 30.22 in 7.0 mi South 5.8 mph - N/A   Overcast
2:11 PM 35.6 °F 31.7 °F 30.2 °F 81% 30.21 in 10.0 mi SSE 4.6 mph - N/A   Overcast
2:31 PM 35.6 °F 31.7 °F 30.2 °F 81% 30.20 in 10.0 mi SSW 4.6 mph - N/A   Overcast
2:50 PM 35.6 °F 29.2 °F 30.2 °F 81% 30.20 in 10.0 mi South 8.1 mph - N/A   Overcast
3:10 PM 35.6 °F - 30.2 °F 81% 30.20 in 10.0 mi Calm Calm - N/A   Overcast
3:31 PM 35.6 °F 32.8 °F 30.2 °F 81% 30.19 in 10.0 mi SSE 3.5 mph - N/A   Overcast
3:50 PM 35.6 °F - 30.2 °F 81% 30.20 in 10.0 mi Calm Calm - N/A   Overcast
4:10 PM 35.6 °F 32.8 °F 30.2 °F 81% 30.20 in 10.0 mi SSE 3.5 mph - N/A   Overcast
4:50 PM 33.8 °F 29.6 °F 30.2 °F 87% 30.19 in 10.0 mi SE 4.6 mph - N/A   Overcast
5:10 PM 33.8 °F 29.6 °F 30.2 °F 87% 30.20 in 10.0 mi SSE 4.6 mph - N/A   Overcast
5:31 PM 33.8 °F 30.8 °F 30.2 °F 87% 30.21 in 10.0 mi SE 3.5 mph - N/A   Overcast
5:50 PM 33.8 °F - 30.2 °F 87% 30.22 in 10.0 mi Calm Calm - N/A   Overcast
6:10 PM 33.8 °F 30.8 °F 30.2 °F 87% 30.22 in 10.0 mi ESE 3.5 mph - N/A   Overcast
6:31 PM 33.8 °F 30.8 °F 30.2 °F 87% 30.21 in 10.0 mi East 3.5 mph - N/A   Overcast
6:50 PM 32.0 °F 27.5 °F 30.2 °F 93% 30.22 in 7.0 mi East 4.6 mph - N/A   Overcast
7:10 PM 32.0 °F 28.7 °F 30.2 °F 93% 30.20 in 10.0 mi ENE 3.5 mph - N/A   Mostly Cloudy
7:31 PM 32.0 °F 28.7 °F 30.2 °F 93% 30.20 in 7.0 mi East 3.5 mph - N/A   Overcast
7:50 PM 32.0 °F 28.7 °F 30.2 °F 93% 30.20 in 7.0 mi East 3.5 mph - N/A   Overcast
8:10 PM 32.0 °F 27.5 °F 30.2 °F 93% 30.20 in 7.0 mi East 4.6 mph - N/A   Overcast
8:31 PM 32.0 °F 27.5 °F 30.2 °F 93% 30.19 in 7.0 mi East 4.6 mph - N/A   Overcast
8:50 PM 32.0 °F 26.4 °F 30.2 °F 93% 30.19 in 7.0 mi East 5.8 mph - N/A   Overcast
9:10 PM 32.0 °F 25.6 °F 30.2 °F 93% 30.18 in 10.0 mi ESE 6.9 mph - N/A   Overcast
9:31 PM 33.8 °F 27.7 °F 30.2 °F 87% 30.18 in 10.0 mi East 6.9 mph - N/A   Overcast
9:50 PM 32.0 °F 26.4 °F 30.2 °F 93% 30.18 in 10.0 mi East 5.8 mph - N/A   Overcast
10:11 PM 32.0 °F 26.4 °F 30.2 °F 93% 30.18 in 7.0 mi East 5.8 mph - N/A   Overcast
10:31 PM 32.0 °F 26.4 °F 30.2 °F 93% 30.19 in 7.0 mi ESE 5.8 mph - N/A   Overcast
10:50 PM 32.0 °F 26.4 °F 30.2 °F 93% 30.19 in 7.0 mi ESE 5.8 mph - N/A   Mostly Cloudy
11:31 PM 32.0 °F 26.4 °F 30.2 °F 93% 30.19 in 10.0 mi ESE 5.8 mph - N/A   Overcast
11:50 PM 32.0 °F 27.5 °F 30.2 °F 93% 30.20 in 10.0 mi ESE 4.6 mph - N/A   Overcast